• Join FlightAware (Why Join?)
  • Login
  • US Flag GB Flag 
03:07 EDT


 

Airport Tracker/Info


-or-


 

Live Flight TrackerFlight Track Log ✈ EJA922 ✈ 12-Jan-2014 ✈ KSFO - KSMF

Flight Track Log - Related Links

Times and Time Zones

All times are in EST time to prevent confusion due to time zone crossing. See the EJA922 flight status page for this flight to view local times or setup timezone preferences in your user account.

Time Position Orientation Groundspeed Altitude Reporting Facility
EST Latitude Longitude Course Direction KTS MPH feet Rate Location/Type
01:17 37.6667 -122.3833 36° Northeast 212 244 4,200  Level Northern Cal TRACON
01:18 37.7167 -122.3667 15° North 222 255 8,400 3,360 Climbing Northern Cal TRACON
01:19 37.7833 -122.3000 38° Northeast 253 291 11,000 1,260 Climbing Northern Cal TRACON
01:20 37.8500 -122.2333 38° Northeast 301 346 11,000  Level Northern Cal TRACON
01:21 37.9167 -122.1667 38° Northeast 301 346 11,000  Level Northern Cal TRACON
01:22 37.9667 -122.1167 38° Northeast 283 326 11,000  Level Northern Cal TRACON
01:23 37.9479 -122.1385 36° Northeast  Level Estimated
01:23 38.0333 -122.0500 38° Northeast 285 328 11,000  Level Northern Cal TRACON
01:24 38.1000 -122.0000 31° Northeast 291 335 11,000 -540 Level Northern Cal TRACON
01:25 38.1500 -121.9333 46° Northeast 265 305 10,000 -1,260 Descending Northern Cal TRACON
01:26 38.2167 -121.8833 31° Northeast 245 282 8,500 -1,500 Descending Northern Cal TRACON
01:27 38.2667 -121.8333 38° Northeast 233 268 7,100 -1,500 Descending Northern Cal TRACON
01:28 38.3167 -121.7833 38° Northeast 223 257 5,600 -1,080 Descending Northern Cal TRACON
01:29 38.3667 -121.7333 38° Northeast 235 270 5,000 -600 Descending Northern Cal TRACON
01:30 38.4167 -121.6833 38° Northeast 227 261 4,400 -960 Descending Northern Cal TRACON
01:31 38.4667 -121.6500 28° Northeast 230 265 3,100 -720 Descending Northern Cal TRACON
01:32 38.5167 -121.6000 38° Northeast 215 247 3,000 -480 Descending Northern Cal TRACON
01:33 38.5667 -121.6000 360° North 173 199 2,200 -720 Descending Northern Cal TRACON
01:34 38.6167 -121.6000 360° North 115 132 1,600 -600 Descending Northern Cal TRACON
01:35 38.6333 -121.6000 360° North 93 107 1,000 -600 Descending Northern Cal TRACON
01:36 38.6667 -121.6000 360° North 100 115 500 1,380 Descending Northern Cal TRACON
01:37 38.6833 -121.6000 360° North 98 113 3,800 3,300 Climbing Northern Cal TRACON